Home   Weather   Douai   Past weeks

Flag for France Past Weather in Douai, Nord-Pas-de-Calais, France — Yesterday and Last 2 Weeks

Now
79 °F

Passing clouds.


Feels Like: 79 °F
Forecast: 57 / 76 °F
Wind: 14 mph from West

Location: Lille Airport

Current Time: Aug 31, 2016 at 6:08:09 PM

Latest Report: Aug 31, 2016 at 5:30 PM


Visibility: N/A

Pressure: 30.12 "Hg

Humidity: 39%

Dew Point: 52 °F

Location of DouaiLocation

Past Weather in Douai — Graph

°F

Douai Temperature Yesterday

Maximum temperature yesterday: 77 °F (at 4:00 PM)
Minimum temperature yesterday: 52 °F (at 6:00 AM)
Average temperature yesterday: 65 °F

High & Low Weather Summary for the Past Weeks

 TemperatureHumidityPressure
High95 °F (Aug 25, 4:30 PM)100% (Aug 20, 3:00 AM)30.30 "Hg (Aug 20, 3:00 AM)
Low52 °F (Aug 30, 6:00 AM)28% (Aug 24, 5:00 PM)29.74 "Hg (Aug 19, 5:00 PM)
Average70 °F69%30.02 "Hg
* Reported Aug 16 5:00 PM — Aug 31 5:00 PM, Douai, Weather by CustomWeather, © 2016

Note: Actual official high and low records may vary slightly from our data, if they occured in-between our weather recording intervals... More about our weather records

Advertising

Douai Weather History for the Previous 24 Hours

Scroll right to see more
 ConditionsComfort  
Time TempWeatherWind HumidityBarometerVisibility
5:00 PM
Wed, Aug 31
79 °FSunny.15 mph42%30.12 "Hg10 mi
4:30 PM79 °FSunny.15 mph42%30.12 "Hg10 mi
4:00 PM81 °FPassing clouds.13 mph42%30.12 "HgN/A
3:30 PM79 °FPassing clouds.12 mph45%30.12 "HgN/A
3:00 PM79 °FSunny.12 mph42%30.12 "Hg10 mi
2:30 PM79 °FSunny.10 mph42%30.12 "Hg10 mi
2:00 PM79 °FSunny.10 mph42%30.12 "Hg10 mi
1:30 PM79 °FPassing clouds.9 mph42%30.12 "HgN/A
1:00 PM77 °FSunny.3 mph47%30.12 "Hg10 mi
12:30 PM77 °FScattered clouds.7 mph44%30.12 "HgN/A
12:00 PM75 °FPassing clouds.5 mph50%30.12 "HgN/A
11:30 AM75 °FPassing clouds.3 mph54%30.12 "HgN/A
11:00 AM72 °FSunny.2 mph57%30.12 "Hg10 mi
10:30 AM70 °FSunny.2 mph60%30.12 "Hg10 mi
10:00 AM66 °FSunny.2 mph68%30.12 "Hg10 mi
9:30 AM63 °FSunny.2 mph77%30.12 "Hg10 mi
9:00 AM59 °FSunny.1 mph82%30.12 "Hg10 mi
8:30 AM57 °FSunny.No wind88%30.12 "Hg10 mi
8:00 AM55 °FSunny.No wind88%30.12 "Hg10 mi
7:30 AM54 °FClear.No wind94%30.12 "Hg10 mi
7:00 AM54 °FClear.No wind88%30.12 "Hg10 mi
6:30 AM54 °FClear.No wind94%30.12 "Hg10 mi
6:00 AM54 °FClear.No wind88%30.12 "Hg10 mi
5:30 AM54 °FClear.No wind94%30.12 "Hg10 mi
5:00 AM54 °FClear.No wind88%30.12 "Hg10 mi
4:30 AM55 °FClear.No wind88%30.15 "Hg10 mi
4:00 AM55 °FClear.No wind82%30.15 "Hg10 mi
3:30 AM55 °FClear.No wind82%30.15 "Hg10 mi
3:00 AM57 °FClear.No wind77%30.15 "Hg10 mi
2:30 AM59 °FClear.2 mph77%30.15 "Hg10 mi
2:00 AM61 °FClear.No wind72%30.15 "Hg10 mi
1:30 AM61 °FClear.2 mph72%30.18 "Hg10 mi
1:00 AM61 °FClear.2 mph72%30.18 "Hg10 mi
12:30 AM61 °FClear.3 mph72%30.18 "Hg10 mi
12:00 AM63 °FClear.3 mph68%30.18 "Hg10 mi
11:30 PM
Tue, Aug 30
64 °FClear.5 mph64%30.18 "Hg10 mi
11:00 PM66 °FClear.5 mph60%30.18 "Hg10 mi
10:30 PM66 °FClear.5 mph64%30.18 "Hg10 mi
10:00 PM68 °FClear.5 mph60%30.18 "Hg10 mi
9:30 PM68 °FSunny.6 mph60%30.21 "Hg10 mi
9:00 PM70 °FSunny.6 mph53%30.21 "Hg10 mi
8:30 PM72 °FSunny.6 mph53%30.21 "Hg10 mi
8:00 PM72 °FSunny.7 mph53%30.18 "Hg10 mi
7:30 PM73 °FSunny.8 mph50%30.18 "Hg10 mi
7:00 PM73 °FSunny.7 mph47%30.21 "Hg10 mi
6:30 PM73 °FPassing clouds.6 mph50%30.21 "HgN/A
6:00 PM75 °FPassing clouds.6 mph47%30.21 "HgN/A
Weather by CustomWeather, © 2016

See weather overviewHow to use our weather pages